Location: Columbia
(38.9520°N, 92.3340°W)
Time: 06:38:32
(UTC-05:00)

Cosmos 1603 - Visible Passes

Search period start: 26 April 2018 00:00
Search period end: 06 May 2018 00:00
Orbit: 833 x 858 km, 71.0° (Epoch: 25 April)

Date Brightness Start Highest point End Pass type
(mag) Time Alt. Az. Time Alt. Az. Time Alt. Az.
26 Apr 4.8 20:59:44 13° SE 21:03:17 22° E 21:07:30 10° NE visible
26 Apr 4.5 22:41:36 10° SW 22:47:00 47° WNW 22:52:26 10° NNE visible
27 Apr 4.8 20:45:13 10° SSE 20:49:22 21° E 20:53:29 10° NE visible
27 Apr 4.5 22:27:38 10° SW 22:33:04 49° WNW 22:38:31 10° NNE visible
28 Apr 4.9 20:31:24 10° SSE 20:35:27 21° E 20:39:29 10° NE visible
28 Apr 4.5 22:13:40 10° SW 22:19:08 50° WNW 22:24:35 10° NNE visible
29 Apr 4.5 21:59:42 10° SW 22:05:11 52° WNW 22:10:40 10° NNE visible
30 Apr 4.4 21:45:45 10° SW 21:51:14 54° WNW 21:56:44 10° NNE visible
01 May 4.4 21:31:47 10° SW 21:37:18 56° WNW 21:42:49 10° NNE visible
02 May 4.4 21:17:49 10° SW 21:23:21 58° WNW 21:28:53 10° NNE visible
03 May 4.3 21:03:52 10° SW 21:09:24 60° WNW 21:14:58 10° NNE visible
04 May 4.3 20:49:55 10° SW 20:55:28 62° WNW 21:01:02 10° NNE visible
05 May 4.3 20:35:57 10° SSW 20:41:31 64° WNW 20:47:06 10° NNE visible
